Terminal Aerodrome Forecast
Issued by NWS Sterling, VA

Current Version | Previous Version | Text Only | Print | Product List | Glossary Off
Versions: 1 2 3 4 5 6 7 8 9 10 11 12 13 14 15 16 17 18 19 20 21

405
FTUS41 KLWX 081451 AAA
TAFIAD
TAF AMD
KIAD 081451Z 0815/0918 03006KT P6SM BKN150
     FM081700 13005KT P6SM BKN040
     FM082200 11006KT P6SM -RA OVC020
     FM090200 10006KT 3SM -RASN OVC012
     FM090500 06005KT 1/2SM SN OVC005
     FM091000 02006KT 2SM -SN OVC007=

USA.gov is the U.S. government's official web portal to all federal, state and local government web resources and services.